EHI
0 0 0 0 0 0 0 0 0 1 0 0 0 0 0 0 0 0 0 0 0 0 0 0 0 0 0 0 0 0 0 0 0 0 0 0 0 0 0 0 0 0 0
0 0 0 0 0 0 0 0 0 1 0 0 0 0 0 0 0 0 0 0 0 0 0 0 0 0 0 0 0 0 0 0 0 0 0 0 0 0 0 0 0 0 0
0 0 0 0 0 0 0 0 0 0 0 0 0 0 0 0 0 0 0 0 0 0 0 0 0 0 0 0 0 0 0 0 0 0 0 0 0 0 0 0 0 0 0
0 0 0 0 0 0 0 0 0 0 0 0 0 0 0 0 0 0 0 0 0 0 0 0 0 0 0 0 0 0 0 0 0 0 0 0 0 0 0 0 0 0 0
0 0 0 0 0 0 0 0 0 0 0 0 0 0 0 0 0 0 0 0 0 0 0 0 0 0 0 0 0 0 0 0 0 0 0 0 0 0 0 0 0 0 0
0 0 0 0 0 0 0 0 0 0 0 0 0 0 0 0 0 0 0 0 0 0 0 0 0 0 0 0 0 0 0 0 0 0 0 0 0 0 0 0 0 0 0
0 0 0 0 0 0 0 0 0 0 0 0 0 0 0 0 0 0 0 0 0 0 0 0 0 0 0 0 0 0 0 0 0 1 0 0 0 0 0 0 0 0 0
0 0 0 0 0 0 0 0 0 0 0 0 0 0 0 0 0 0 0 0 0 0 0 0 0 0 0 0 0 0 0 0 0 0 0 0 0 0 0 0 0 0 0
0 0 0 0 0 0 0 0 0 0 0 0 0 0 0 0 0 0 0 0 0 0 0 0 0 0 0 0 0 0 0 0 0 0 0 0 0 0 0 0 0 0 0
0 0 0 0 0 0 0 0 0 0 0 0 0 0 0 0 0 0 0 0 0 0 0 0 0 0 0 0 0 0 0 0 0 0 0 0 0 0 0 0 0 0 0
0 0 0 0 0 0 0 0 0 0 0 0 0 0 0 0 0 0 0 0 0 0 0 0 0 0 0 0 0 0 0 0 0 0 0 0 0 0 0 0 0 0 0
0 0 0 0 0 0 0 0 0 0 0 0 0 0 0 0 0 0 0 0 0 0 0 0 0 0 0 0 0 0 0 0 0 0 0 0 0 0 0 0 0 0 0
0 0 0 0 0 0 0 0 0 0 0 0 0 0 0 0 0 0 0 0 0 0 0 0 0 0 0 0 0 0 0 0 0 0 0 0 0 0 0 0 0 0 0
0 0 0 0 0 0 0 0 0 0 0 0 0 0 0 0 0 0 0 0 0 0 0 0 0 0 0 0 0 0 0 0 0 0 0 0 0 0 0 0 0 0 0
0 0 0 0 0 0 0 0 0 0 0 0 0 0 0 0 0 0 0 0 0 0 0 0 0 0 0 0 0 0 0 0 0 0 0 0 0 0 0 0 0 0 0
0 0 0 0 0 0 0 0 0 0 0 0 0 0 0 0 0 0 0 0 0 0 0 0 0 0 0 0 0 0 0 0 0 0 0 0 0 0 0 0 0 0 0
0 0 0 0 0 0 0 0 0 0 0 0 0 0 0 0 0 0 0 0 0 0 0 0 0 0 0 0 0 0 0 0 0 0 0 0 0 0 0 0 0 0 0
0 0 0 0 0 0 0 0 0 0 0 0 0 0 0 0 0 0 0 0 0 0 0 0 0 0 0 0 0 0 0 0 0 0 0 0 0 0 0 0 0 0 0
0 0 0 0 0 0 0 0 0 0 0 0 0 0 0 0 0 0 0 0 0 0 0 0 0 0 0 0 0 0 0 0 0 0 0 0 0 0 0 0 0 0 0
0 0 0 0 0 0 0 0 0 0 0 0 0 0 0 0 0 0 0 0 0 0 0 0 0 0 0 0 0 0 0 0 0 0 0 0 0 0 0 0 0 0 0
0 0 0 0 0 0 0 0 0 0 0 0 0 0 0 0 0 0 0 0 0 0 0 0 0 0 0 0 0 0 0 0 0 0 0 0 0 0 0 0 0 0 0
0 0 0 0 0 0 0 0 0 0 0 0 0 0 0 0 0 0 0 0 0 0 0 0 0 0 0 0 0 0 0 0 0 0 0 0 0 0 0 0 0 0 0
0 0 0 0 0 0 0 0 0 0 0 0 0 0 0 0 0 0 0 0 0 0 0 0 0 0 0 0 0 0 0 0 0 0 0 0 0 0 0 0 0 0 0
0 0 0 0 0 0 0 0 0 0 0 0 0 0 0 0 0 0 0 0 0 0 0 0 0 0 0 0 0 0 0 0 0 0 0 0 0 0 0 0 0 0 0
0 0 0 0 0 0 0 0 0 0 0 0 0 0 0 0 0 0 0 0 0 0 0 0 0 0 0 0 0 0 0 0 0 0 0 0 0 0 0 0 0 0 0
0 0 0 0 0 0 0 0 0 0 0 0 0 0 0 0 0 0 0 0 0 0 0 0 0 0 0 0 0 0 0 0 0 0 0 0 0 0 0 0 0 0 0
Wind_Speed
4 3 2 2 3 3 3 3 3 4 4 3 3 4 3 3 2 2 2 4 5 5 5 5 4 4 4 4 5 5 5 5 5 6 6 6 6 7 7 7 7 7 7
4 4 3 3 3 3 3 3 4 4 3 3 3 3 3 2 2 2 2 2 4 4 4 4 4 4 4 4 4 4 4 4 4 4 5 5 5 5 5 5 6 6 6
5 4 4 3 3 3 4 3 4 3 3 3 3 3 2 2 2 2 2 2 2 4 4 4 4 4 4 3 3 4 4 4 3 4 4 4 4 4 4 4 4 4 5
6 4 4 3 3 3 3 3 3 3 3 3 3 2 2 2 2 2 2 2 2 2 3 4 3 3 3 2 3 3 3 4 4 4 4 3 3 2 2 3 3 3 3
6 5 4 4 4 4 3 4 3 3 3 3 3 2 2 2 1 2 2 2 2 2 1 3 3 3 3 2 2 2 3 3 4 3 2 2 2 1 1 1 1 1 1
6 5 4 5 5 4 3 4 4 3 3 3 4 3 2 1 1 1 1 1 1 1 1 1 2 2 3 3 2 2 2 2 3 2 2 1 1 1 1 0 0 1 1
6 5 4 5 5 4 5 5 4 4 2 2 3 2 2 2 1 1 1 1 1 1 1 1 1 1 1 3 2 1 1 1 1 1 1 1 1 0 0 1 1 1 1
5 5 5 5 5 4 5 5 5 3 2 2 3 3 1 2 2 1 1 0 1 1 1 1 0 1 1 1 2 2 2 2 2 1 1 1 1 1 1 2 2 3 3
5 5 5 5 6 5 5 6 5 6 4 2 1 3 3 3 1 1 1 0 0 0 1 0 0 0 0 0 1 2 2 2 3 3 3 3 3 3 3 3 3 4 4
5 5 5 5 5 5 5 5 5 4 5 4 1 1 2 3 3 1 2 1 1 1 2 1 1 1 1 1 1 2 2 3 4 5 5 5 4 4 4 4 4 4 5
4 4 5 4 5 4 5 5 5 5 4 4 4 2 2 1 1 2 2 2 1 2 2 2 1 1 1 1 1 2 3 4 5 6 6 6 6 6 6 5 5 4 5
2 4 4 4 4 4 5 5 5 6 5 4 3 3 3 3 3 3 2 2 2 2 2 2 2 2 2 2 2 3 4 4 5 6 7 7 7 7 6 6 6 6 6
2 4 4 4 4 4 4 4 5 5 6 6 5 4 3 3 3 3 3 2 1 1 1 1 2 2 2 2 2 3 4 4 5 6 7 7 6 6 6 6 6 6 6
4 5 5 5 4 4 4 4 4 4 5 5 5 5 3 3 3 3 3 3 1 1 2 3 1 2 2 2 3 3 3 5 5 6 7 7 6 5 5 5 6 5 6
3 5 5 5 5 5 5 5 4 4 4 5 5 5 3 3 3 3 3 4 4 2 3 3 2 2 1 2 3 2 3 4 5 6 6 5 5 5 5 5 5 5 5
4 5 5 4 4 4 5 5 4 4 4 4 4 5 4 3 3 3 3 3 3 3 3 3 2 2 1 1 2 2 3 4 5 5 5 5 5 5 6 6 6 6 6
4 5 5 5 5 5 4 5 4 5 5 4 4 5 5 4 3 3 3 3 3 3 3 2 1 1 1 1 2 1 2 2 3 5 6 6 6 6 6 7 7 7 7
4 4 4 4 4 4 4 5 5 5 5 5 5 5 5 4 4 3 3 4 3 3 3 3 2 1 2 2 2 2 2 2 2 5 6 6 7 7 7 7 7 7 8
3 3 4 4 4 4 4 5 5 5 5 5 5 6 5 5 5 4 4 4 3 2 2 2 2 1 1 1 1 2 2 2 3 4 6 7 7 8 8 8 8 8 8
4 3 4 4 4 4 4 4 4 4 4 4 4 5 5 5 6 5 4 4 3 3 2 2 2 2 1 1 1 2 2 2 2 2 4 5 6 7 8 8 8 8 8
3 3 3 3 3 3 3 4 4 4 4 4 3 4 4 5 6 5 4 4 4 3 3 3 2 2 2 2 3 2 2 2 3 2 2 2 3 3 4 6 8 8 8
3 3 3 3 3 3 4 5 4 4 4 4 4 3 3 4 5 6 7 7 6 5 5 4 3 4 4 4 3 2 2 1 3 1 1 3 2 3 3 3 7 9 8
3 3 3 3 3 3 4 5 5 3 4 4 4 3 3 3 4 3 4 5 6 7 7 5 5 5 5 5 4 3 3 3 4 2 1 3 2 4 3 4 9 9 8
3 3 2 2 2 2 3 4 4 2 2 3 3 4 4 3 3 3 3 2 3 4 5 5 5 5 4 4 5 4 4 3 2 1 2 3 2 3 3 3 7 8 8
2 2 2 2 2 2 3 3 3 2 2 2 2 2 3 3 5 5 3 3 3 3 3 5 5 4 4 4 3 2 2 1 3 2 2 2 2 2 3 3 4 6 7
2 2 1 1 2 2 2 3 3 2 2 1 1 2 3 4 5 5 4 4 4 3 2 2 2 2 2 2 3 3 3 3 2 2 2 2 1 1 3 2 2 2 3
Wind_Direction
144 141 132 125 121 118 120 118 115 111 104 97 93 95 87 79 67 55 46 64 76 87 100 105 103 111 115 111 103 99 95 88 90 99 95 88 85 81 82 79 74 70 66
153 149 142 139 133 131 129 128 128 120 110 105 96 94 97 89 72 62 50 47 59 71 87 91 93 106 115 113 110 107 102 97 89 102 104 96 91 90 87 81 77 71 68
158 155 153 153 150 137 127 117 114 108 107 101 94 91 93 85 82 69 54 45 39 48 66 78 80 98 110 111 113 104 96 95 93 104 112 107 100 94 94 87 81 72 67
162 158 158 158 150 140 134 130 126 114 110 107 99 86 78 77 81 79 68 53 46 38 41 53 62 76 96 104 121 110 100 88 94 106 104 105 104 93 100 93 84 76 69
164 160 160 154 148 142 140 141 127 128 130 121 106 87 73 72 71 72 70 61 55 45 34 33 44 47 50 72 95 97 89 95 87 89 107 111 103 94 103 90 64 61 67
165 159 154 152 148 144 144 141 135 121 126 127 107 82 59 54 65 75 66 47 51 51 44 37 37 25 35 42 60 71 61 71 84 72 69 115 119 120 128 107 356 347 354
165 163 158 154 155 156 156 148 135 126 119 126 107 78 34 41 55 61 46 41 21 24 56 52 60 52 18 24 33 40 23 33 60 60 55 49 70 104 186 265 281 307 304
164 168 164 162 159 150 148 152 143 133 133 144 129 117 67 355 351 18 31 39 340 3 34 30 51 93 53 28 6 21 5 336 333 324 320 319 312 294 257 258 271 283 288
167 165 167 164 164 163 167 169 162 151 153 165 149 144 153 198 270 325 322 293 271 289 287 296 284 297 17 58 336 349 349 332 311 303 296 286 290 286 277 265 264 274 277
169 165 167 167 168 169 170 177 171 155 152 161 149 87 130 146 151 241 309 296 264 251 254 257 258 255 234 213 261 285 300 302 291 288 288 294 290 285 282 280 274 279 283
165 161 166 167 170 174 174 175 170 166 167 168 163 148 119 87 126 157 230 273 289 260 243 240 235 239 241 227 236 252 271 277 277 280 285 290 290 283 281 287 286 287 292
164 162 162 170 175 176 180 181 179 177 181 172 166 162 160 161 175 171 193 224 251 273 262 239 228 230 231 230 243 254 254 263 272 278 279 282 289 288 288 288 289 288 290
177 178 172 177 178 179 181 178 179 185 184 180 182 187 183 179 160 162 164 185 227 277 291 264 232 224 230 228 244 261 259 262 268 272 276 279 288 303 303 291 287 290 292
188 177 177 182 180 176 176 175 181 190 186 189 192 186 186 193 176 170 166 160 182 273 268 258 259 222 223 230 244 260 263 265 266 269 273 280 290 298 302 297 289 291 295
174 170 176 181 181 180 179 176 184 191 190 194 195 192 194 196 190 186 176 174 174 216 252 243 240 230 221 223 243 238 249 263 265 269 272 277 281 285 287 286 283 284 287
167 166 171 177 179 183 182 181 183 188 189 198 193 191 197 195 191 188 189 190 190 197 231 230 228 241 229 240 248 240 248 267 266 264 263 265 268 269 276 279 281 279 279
170 172 175 177 180 185 185 185 190 186 191 195 194 195 201 192 191 191 185 186 194 189 226 256 244 249 227 250 276 267 264 254 265 265 262 263 264 267 269 273 274 273 275
173 172 170 174 181 182 183 188 191 190 191 195 198 195 204 192 193 192 189 196 198 195 203 237 242 230 241 238 252 271 279 272 264 272 269 267 265 268 270 271 270 271 272
163 163 167 174 181 181 183 188 188 192 196 199 197 197 202 194 200 198 195 198 196 195 197 206 231 221 243 241 261 279 276 272 272 276 272 267 265 270 272 271 272 273 271
163 171 177 179 181 178 179 182 184 187 195 201 201 200 200 200 203 197 198 198 190 189 189 198 217 222 226 235 214 252 281 276 278 282 270 271 273 275 275 275 277 277 272
169 176 174 175 176 176 182 183 187 188 191 195 202 204 205 204 203 200 195 193 187 192 193 205 217 218 220 211 226 225 253 285 279 252 276 275 274 269 270 275 274 270 272
160 161 172 178 181 189 191 192 189 186 188 192 201 204 203 205 205 208 207 201 195 195 200 206 216 223 227 221 219 221 236 270 275 254 269 282 256 264 266 260 274 275 272
160 164 176 176 184 194 189 192 194 186 186 194 196 194 197 203 202 198 207 213 217 219 213 207 217 225 222 216 206 219 223 232 245 240 228 272 266 267 267 272 279 275 278
163 168 175 180 181 198 191 188 184 181 184 196 200 195 194 199 200 194 195 209 227 231 226 221 221 226 223 213 206 215 224 240 265 243 185 256 268 272 292 283 280 277 279
150 163 172 172 175 196 196 188 175 164 171 194 202 194 191 198 204 197 190 207 232 251 246 226 226 228 225 222 206 183 195 221 262 252 196 224 269 297 293 283 281 286 285
148 148 149 168 177 197 202 190 177 163 173 187 192 201 202 203 201 193 192 199 220 235 221 226 231 240 232 214 203 203 202 213 233 249 203 197 249 317 301 283 290 299 299